UAL721 LFPG-KEWR

Flight info

Callsign UAL721
Flight time 6h 51m
Altitude 36000
Route ELCOB UT300 SENLO DCT JSY DCT LIZAD DCT LESLU DCT DOGAL/M084F360 NATD RIKAL/N0491F360 N572A TOPPS DCT ENE DCT NELIE FLOSI4
Aircraft B78X/H-SDE1E2E3FGHIJ2J3J4J5M1RWXY/LB1D1

Departure

Time 2026-04-23 13:01
Airport Charles de Gaulle International Airport (LFPG)

Arrival

Time 2026-04-23 19:52
Airport Newark Liberty International Airport (KEWR)
Time Latitude Longitude Altitude Speed Heading
2026-04-23 12:14 49.01628 2.54029 360 ft 0 kts 317°
2026-04-23 12:22 49.01627 2.54029 360 ft 0 kts 317°
2026-04-23 12:41 49.01628 2.54029 360 ft 0 kts 317°
2026-04-23 12:43 49.01623 2.54035 364 ft 4 kts 317°
2026-04-23 12:43 49.01604 2.54063 364 ft 4 kts 318°
2026-04-23 12:44 49.01584 2.54089 367 ft 1 kts 317°
2026-04-23 12:44 49.01599 2.54080 366 ft 3 kts 335°
2026-04-23 12:44 49.01622 2.54066 364 ft 4 kts 339°
2026-04-23 12:44 49.01646 2.54052 362 ft 3 kts 337°
2026-04-23 12:45 49.01662 2.54041 367 ft 2 kts 334°
2026-04-23 12:45 49.01671 2.54032 368 ft 1 kts 330°
2026-04-23 12:45 49.01680 2.54024 364 ft 1 kts 326°
2026-04-23 12:45 49.01682 2.54021 364 ft 0 kts 325°
2026-04-23 12:51 49.01683 2.54020 364 ft 0 kts 325°
2026-04-23 12:51 49.01685 2.54019 365 ft 1 kts 325°
2026-04-23 12:51 49.01701 2.54003 364 ft 4 kts 328°
2026-04-23 12:52 49.01730 2.53998 366 ft 4 kts
2026-04-23 12:52 49.01755 2.54013 365 ft 4 kts 22°
2026-04-23 12:52 49.01778 2.54005 364 ft 3 kts 330°
2026-04-23 12:52 49.01788 2.53978 367 ft 3 kts 296°
2026-04-23 12:53 49.01794 2.53925 362 ft 8 kts 276°
2026-04-23 12:53 49.01794 2.53834 365 ft 9 kts 268°
2026-04-23 12:53 49.01789 2.53735 366 ft 10 kts 265°
2026-04-23 12:53 49.01784 2.53632 362 ft 10 kts 265°
2026-04-23 12:54 49.01778 2.53525 365 ft 10 kts 265°
2026-04-23 12:54 49.01772 2.53415 363 ft 11 kts 265°
2026-04-23 12:54 49.01765 2.53300 360 ft 11 kts 265°
2026-04-23 12:54 49.01758 2.53181 366 ft 11 kts 265°
2026-04-23 12:55 49.01752 2.53059 364 ft 12 kts 266°
2026-04-23 12:55 49.01748 2.52946 364 ft 10 kts 266°
2026-04-23 12:55 49.01743 2.52838 366 ft 10 kts 269°
2026-04-23 12:55 49.01772 2.52749 365 ft 10 kts 303°
2026-04-23 12:56 49.01804 2.52660 368 ft 9 kts 291°
2026-04-23 12:56 49.01812 2.52561 366 ft 10 kts 272°
2026-04-23 12:56 49.01811 2.52479 365 ft 6 kts 269°
2026-04-23 12:56 49.01816 2.52418 367 ft 5 kts 293°
2026-04-23 12:57 49.01838 2.52389 367 ft 4 kts 329°
2026-04-23 12:57 49.01867 2.52372 363 ft 6 kts 338°
2026-04-23 12:57 49.01910 2.52357 367 ft 7 kts 351°
2026-04-23 12:57 49.01934 2.52353 365 ft 0 kts 353°
2026-04-23 12:58 49.01938 2.52352 365 ft 1 kts 353°
2026-04-23 12:58 49.01956 2.52349 365 ft 6 kts 353°
2026-04-23 12:58 49.01980 2.52344 366 ft 0 kts 353°
2026-04-23 12:58 49.01995 2.52342 367 ft 5 kts 355°
2026-04-23 12:59 49.02033 2.52337 366 ft 6 kts 355°
2026-04-23 12:59 49.02071 2.52346 367 ft 6 kts 19°
2026-04-23 12:59 49.02106 2.52390 369 ft 6 kts 55°
2026-04-23 12:59 49.02117 2.52436 369 ft 4 kts 73°
2026-04-23 13:00 49.02122 2.52473 364 ft 8 kts 79°
2026-04-23 13:00 49.02143 2.52802 362 ft 67 kts 85°
2026-04-23 13:00 49.02202 2.53905 360 ft 139 kts 85°
2026-04-23 13:00 49.02294 2.55592 720 ft 174 kts 85°
2026-04-23 13:01 49.02405 2.57639 1038 ft 214 kts 84°
2026-04-23 13:01 49.02526 2.59902 1944 ft 224 kts 84°
2026-04-23 13:01 49.02654 2.62368 2899 ft 238 kts 85°
2026-04-23 13:01 49.02790 2.64919 4085 ft 243 kts 86°
2026-04-23 13:02 49.02924 2.67482 5222 ft 246 kts 87°
2026-04-23 13:02 49.03060 2.70131 6333 ft 252 kts 86°
2026-04-23 13:02 49.03263 2.72784 7377 ft 258 kts 76°
2026-04-23 13:02 49.04083 2.75249 8363 ft 265 kts 53°
2026-04-23 13:03 49.05522 2.77110 9412 ft 277 kts 31°
2026-04-23 13:03 49.07391 2.77967 9979 ft 292 kts
2026-04-23 13:03 49.09426 2.77478 9991 ft 297 kts 339°
2026-04-23 13:03 49.11104 2.75693 10020 ft 302 kts 312°
2026-04-23 13:04 49.12129 2.72890 10021 ft 306 kts 285°
2026-04-23 13:04 49.12230 2.69666 10021 ft 306 kts 257°
2026-04-23 13:04 49.11386 2.66724 10025 ft 300 kts 232°
2026-04-23 13:04 49.10268 2.64050 10019 ft 304 kts 240°
2026-04-23 13:05 49.09248 2.61118 10022 ft 326 kts 240°
2026-04-23 13:05 49.08226 2.57857 10022 ft 347 kts 246°
2026-04-23 13:05 49.07342 2.54443 10000 ft 354 kts 248°
2026-04-23 13:05 49.06432 2.50946 10144 ft 355 kts 246°
2026-04-23 13:06 49.04457 2.44004 11873 ft 360 kts 245°
2026-04-23 13:06 49.03474 2.40457 12891 ft 365 kts 246°
2026-04-23 13:06 49.02524 2.36829 13878 ft 371 kts 252°
2026-04-23 13:07 49.02213 2.32950 14766 ft 377 kts 269°
2026-04-23 13:07 49.02228 2.28931 15619 ft 381 kts 271°
2026-04-23 13:07 49.02332 2.24860 16483 ft 386 kts 271°
2026-04-23 13:07 49.02408 2.20774 17355 ft 390 kts 269°
2026-04-23 13:08 49.02438 2.16607 18206 ft 394 kts 269°
2026-04-23 13:08 49.02473 2.12444 18983 ft 398 kts 269°
2026-04-23 13:08 49.02527 2.08191 19693 ft 402 kts 269°
2026-04-23 13:08 49.02581 2.03946 20384 ft 406 kts 269°
2026-04-23 13:09 49.02625 1.99612 21062 ft 411 kts 268°
2026-04-23 13:09 49.02666 1.95224 21701 ft 416 kts 268°
2026-04-23 13:09 49.02710 1.90777 22362 ft 420 kts 268°
2026-04-23 13:09 49.02754 1.86313 23005 ft 424 kts 268°
2026-04-23 13:10 49.02795 1.81851 23610 ft 428 kts 268°
2026-04-23 13:10 49.02833 1.77288 24176 ft 432 kts 268°
2026-04-23 13:10 49.02871 1.72673 24704 ft 435 kts 268°
2026-04-23 13:10 49.02908 1.68102 25215 ft 437 kts 268°
2026-04-23 13:11 49.02943 1.63440 25745 ft 440 kts 269°
2026-04-23 13:11 49.02976 1.58758 26256 ft 443 kts 269°
2026-04-23 13:11 49.03008 1.54046 26756 ft 446 kts 269°
2026-04-23 13:11 49.03038 1.49293 27245 ft 449 kts 269°
2026-04-23 13:12 49.03065 1.44572 27730 ft 452 kts 269°
2026-04-23 13:12 49.03091 1.39760 28203 ft 455 kts 270°
2026-04-23 13:12 49.03115 1.34910 28697 ft 457 kts 270°
2026-04-23 13:12 49.03138 1.30055 29209 ft 458 kts 271°
2026-04-23 13:13 49.03152 1.26816 29550 ft 459 kts 271°
2026-04-23 13:13 49.03231 1.20336 30261 ft 459 kts 276°
2026-04-23 13:13 49.03357 1.17119 30556 ft 460 kts 275°
2026-04-23 13:13 49.03490 1.12240 30981 ft 461 kts 274°
2026-04-23 13:14 49.03618 1.07339 31405 ft 462 kts 275°
2026-04-23 13:14 49.03773 1.02435 31818 ft 463 kts 275°
2026-04-23 13:14 49.03933 0.97513 32215 ft 465 kts 275°
2026-04-23 13:14 49.04078 0.92579 32611 ft 466 kts 275°
2026-04-23 13:15 49.04214 0.87632 32960 ft 468 kts 275°
2026-04-23 13:15 49.04356 0.82652 33322 ft 470 kts 275°
2026-04-23 13:15 49.04499 0.77726 33670 ft 471 kts 275°
2026-04-23 13:15 49.04638 0.72762 34015 ft 473 kts 275°
2026-04-23 13:16 49.04774 0.67734 34350 ft 474 kts 275°
2026-04-23 13:16 49.04909 0.62689 34630 ft 476 kts 275°
2026-04-23 13:16 49.05043 0.57682 34912 ft 478 kts 275°
2026-04-23 13:16 49.05175 0.52599 35226 ft 478 kts 275°
2026-04-23 13:17 49.05304 0.47533 35652 ft 476 kts 275°
2026-04-23 13:17 49.05431 0.42484 36047 ft 475 kts 275°
2026-04-23 13:17 49.05555 0.37505 36290 ft 477 kts 275°
2026-04-23 13:18 49.05798 0.27367 36285 ft 473 kts 275°
2026-04-23 13:18 49.06031 0.17351 36290 ft 474 kts 275°
2026-04-23 13:19 49.06254 0.07350 36291 ft 473 kts 275°
2026-04-23 13:19 49.06470 -0.02705 36289 ft 472 kts 275°
2026-04-23 13:20 49.06675 -0.12659 36286 ft 471 kts 275°
2026-04-23 13:20 49.06873 -0.22676 36290 ft 470 kts 275°
2026-04-23 13:21 49.07061 -0.32590 36283 ft 469 kts 275°
2026-04-23 13:21 49.07242 -0.42513 36290 ft 468 kts 274°
2026-04-23 13:22 49.07414 -0.52436 36283 ft 467 kts 274°
2026-04-23 13:22 49.07578 -0.62348 36282 ft 467 kts 274°
2026-04-23 13:23 49.07731 -0.72222 36285 ft 467 kts 274°
2026-04-23 13:23 49.07879 -0.82179 36293 ft 467 kts 274°
2026-04-23 13:24 49.08015 -0.92036 36290 ft 467 kts 274°
2026-04-23 13:24 49.08145 -1.01971 36285 ft 467 kts 274°
2026-04-23 13:25 49.08266 -1.11844 36275 ft 467 kts 274°
2026-04-23 13:25 49.08953 -1.21603 36306 ft 464 kts 287°
2026-04-23 13:26 49.10501 -1.31216 36293 ft 464 kts 286°
2026-04-23 13:26 49.12044 -1.40744 36294 ft 464 kts 285°
2026-04-23 13:27 49.13570 -1.50287 36291 ft 464 kts 285°
2026-04-23 13:27 49.15095 -1.59844 36287 ft 464 kts 285°
2026-04-23 13:28 49.16617 -1.69453 36280 ft 464 kts 285°
2026-04-23 13:28 49.18131 -1.79064 36275 ft 464 kts 285°
2026-04-23 13:29 49.19628 -1.88626 36271 ft 464 kts 285°
2026-04-23 13:29 49.21128 -1.98260 36267 ft 465 kts 285°
2026-04-23 13:30 49.22695 -2.07863 36272 ft 465 kts 287°
2026-04-23 13:30 49.24307 -2.17419 36272 ft 466 kts 285°
2026-04-23 13:31 49.25969 -2.27060 36273 ft 467 kts 286°
2026-04-23 13:31 49.27591 -2.36621 36271 ft 467 kts 285°
2026-04-23 13:32 49.29228 -2.46293 36272 ft 468 kts 285°
2026-04-23 13:32 49.30849 -2.55926 36270 ft 468 kts 285°
2026-04-23 13:33 49.32470 -2.65626 36269 ft 468 kts 285°
2026-04-23 13:33 49.34077 -2.75281 36268 ft 468 kts 285°
2026-04-23 13:34 49.35678 -2.84963 36271 ft 468 kts 285°
2026-04-23 13:34 49.37266 -2.94616 36270 ft 468 kts 285°
2026-04-23 13:35 49.38851 -3.04313 36271 ft 467 kts 285°
2026-04-23 13:35 49.40418 -3.13950 36275 ft 466 kts 284°
2026-04-23 13:36 49.41987 -3.23659 36276 ft 467 kts 284°
2026-04-23 13:36 49.43539 -3.33319 36271 ft 467 kts 284°
2026-04-23 13:37 49.45079 -3.42959 36270 ft 467 kts 284°
2026-04-23 13:37 49.46625 -3.52692 36269 ft 467 kts 284°
2026-04-23 13:38 49.48152 -3.62363 36268 ft 467 kts 284°
2026-04-23 13:38 49.49671 -3.72041 36266 ft 467 kts 284°
2026-04-23 13:39 49.51185 -3.81741 36265 ft 467 kts 283°
2026-04-23 13:39 49.52694 -3.91475 36266 ft 469 kts 283°
2026-04-23 13:40 49.54201 -4.01252 36260 ft 468 kts 283°
2026-04-23 13:40 49.55690 -4.10970 36261 ft 469 kts 283°
2026-04-23 13:41 49.57185 -4.20783 36258 ft 468 kts 283°
2026-04-23 13:41 49.58707 -4.30508 36264 ft 469 kts 289°
2026-04-23 13:42 49.61683 -4.39478 36274 ft 472 kts 301°
2026-04-23 13:42 49.65180 -4.47986 36276 ft 471 kts 301°
2026-04-23 13:43 49.68674 -4.56532 36276 ft 471 kts 301°
2026-04-23 13:43 49.72175 -4.65130 36280 ft 472 kts 301°
2026-04-23 13:44 49.75654 -4.73694 36281 ft 473 kts 301°
2026-04-23 13:44 49.79150 -4.82334 36278 ft 473 kts 301°
2026-04-23 13:45 49.82062 -4.89548 36281 ft 474 kts 301°
2026-04-23 13:45 49.86130 -4.99661 36273 ft 474 kts 300°
2026-04-23 13:46 49.89595 -5.08305 36270 ft 474 kts 300°
2026-04-23 13:46 49.93078 -5.17028 36272 ft 475 kts 300°
2026-04-23 13:47 49.96557 -5.25763 36266 ft 475 kts 300°
2026-04-23 13:47 50.00008 -5.34461 36267 ft 476 kts 300°
2026-04-23 13:48 50.03488 -5.43258 36270 ft 476 kts 300°
2026-04-23 13:48 50.06938 -5.52013 36243 ft 477 kts 300°
2026-04-23 13:49 50.10406 -5.60837 36242 ft 477 kts 299°
2026-04-23 13:49 50.13869 -5.69688 36245 ft 477 kts 299°
2026-04-23 13:50 50.17319 -5.78526 36247 ft 478 kts 299°
2026-04-23 13:50 50.20760 -5.87374 36252 ft 477 kts 299°
2026-04-23 13:51 50.24210 -5.96278 36258 ft 478 kts 299°
2026-04-23 13:51 50.27634 -6.05139 36267 ft 479 kts 299°
2026-04-23 13:52 50.31076 -6.14087 36275 ft 479 kts 298°
2026-04-23 13:52 50.34516 -6.23050 36274 ft 480 kts 298°
2026-04-23 13:53 50.37941 -6.32011 36269 ft 481 kts 298°
2026-04-23 13:53 50.41375 -6.41027 36273 ft 481 kts 298°
2026-04-23 13:54 50.44790 -6.50022 36272 ft 482 kts 298°
2026-04-23 13:54 50.48209 -6.59060 36270 ft 482 kts 298°
2026-04-23 13:55 50.51632 -6.68137 36274 ft 482 kts 298°
2026-04-23 13:55 50.55034 -6.77195 36274 ft 483 kts 298°
2026-04-23 13:56 50.58456 -6.86335 36274 ft 484 kts 298°
2026-04-23 13:56 50.61850 -6.95435 36275 ft 484 kts 298°
2026-04-23 13:57 50.65265 -7.04623 36277 ft 484 kts 298°
2026-04-23 13:57 50.68652 -7.13772 36279 ft 485 kts 297°
2026-04-23 13:58 50.72036 -7.22937 36277 ft 486 kts 297°
2026-04-23 13:58 50.75436 -7.32187 36276 ft 486 kts 297°
2026-04-23 13:59 50.78817 -7.41410 36281 ft 487 kts 297°
2026-04-23 13:59 50.82222 -7.50739 36279 ft 487 kts 297°
2026-04-23 14:00 50.85017 -7.58420 36278 ft 487 kts 297°
2026-04-23 14:00 50.88957 -7.69285 36279 ft 487 kts 297°
2026-04-23 14:01 50.92329 -7.78623 36280 ft 488 kts 297°
2026-04-23 14:01 50.95697 -7.87984 36281 ft 488 kts 297°
2026-04-23 14:02 50.99037 -7.97301 36284 ft 489 kts 297°
2026-04-23 14:02 51.02995 -8.06132 36281 ft 493 kts 305°
2026-04-23 14:03 51.07216 -8.14770 36271 ft 494 kts 305°
2026-04-23 14:03 51.11399 -8.23381 36262 ft 494 kts 305°
2026-04-23 14:04 51.14899 -8.30603 36265 ft 494 kts 305°
2026-04-23 14:04 51.19791 -8.40729 36269 ft 495 kts 304°
2026-04-23 14:05 51.23298 -8.48015 36276 ft 496 kts 304°
2026-04-23 14:05 51.27482 -8.56731 36277 ft 496 kts 304°
2026-04-23 14:06 51.31680 -8.65510 36273 ft 497 kts 304°
2026-04-23 14:06 51.35883 -8.74326 36279 ft 497 kts 304°
2026-04-23 14:07 51.40055 -8.83108 36276 ft 497 kts 304°
2026-04-23 14:07 51.46345 -8.96405 36281 ft 498 kts 304°
2026-04-23 14:08 51.50510 -9.05248 36280 ft 499 kts 304°
2026-04-23 14:08 51.54678 -9.14128 36281 ft 499 kts 303°
2026-04-23 14:09 51.58869 -9.23088 36278 ft 500 kts 303°
2026-04-23 14:09 51.63023 -9.31999 36276 ft 501 kts 303°
2026-04-23 14:10 51.67213 -9.41020 36264 ft 502 kts 303°
2026-04-23 14:10 51.71376 -9.50012 36265 ft 503 kts 303°
2026-04-23 14:11 51.75561 -9.59084 36262 ft 503 kts 303°
2026-04-23 14:11 51.79741 -9.68179 36255 ft 504 kts 303°
2026-04-23 14:12 51.83923 -9.77308 36258 ft 505 kts 303°
2026-04-23 14:12 51.88085 -9.86428 36259 ft 505 kts 302°
2026-04-23 14:13 51.92258 -9.95601 36260 ft 506 kts 302°
2026-04-23 14:13 51.96405 -10.04752 36255 ft 506 kts 302°
2026-04-23 14:14 52.00582 -10.14002 36258 ft 506 kts 302°
2026-04-23 14:14 52.04736 -10.23235 36252 ft 506 kts 302°
2026-04-23 14:15 52.08859 -10.32432 36253 ft 507 kts 302°
2026-04-23 14:15 52.13015 -10.41735 36249 ft 507 kts 302°
2026-04-23 14:16 52.17163 -10.51053 36253 ft 508 kts 302°
2026-04-23 14:16 52.21290 -10.60360 36238 ft 508 kts 302°
2026-04-23 14:17 52.25439 -10.69749 36239 ft 509 kts 302°
2026-04-23 14:17 52.29555 -10.79098 36245 ft 510 kts 302°
2026-04-23 14:18 52.33693 -10.88531 36246 ft 510 kts 301°
2026-04-23 14:18 52.37825 -10.97987 36248 ft 511 kts 301°
2026-04-23 14:19 52.41935 -11.07427 36253 ft 512 kts 301°
2026-04-23 14:19 52.46069 -11.16955 36249 ft 512 kts 301°
2026-04-23 14:20 52.50196 -11.26504 36246 ft 513 kts 301°
2026-04-23 14:20 52.54322 -11.36086 36246 ft 514 kts 301°
2026-04-23 14:21 52.58426 -11.45654 36245 ft 514 kts 301°
2026-04-23 14:21 52.62544 -11.55289 36245 ft 514 kts 301°
2026-04-23 14:22 52.66659 -11.64955 36243 ft 515 kts 301°
2026-04-23 14:22 52.70746 -11.74594 36241 ft 515 kts 301°
2026-04-23 14:23 52.74856 -11.84319 36236 ft 516 kts 301°
2026-04-23 14:23 52.78940 -11.94022 36241 ft 516 kts 300°
2026-04-23 14:24 52.83034 -12.03787 36239 ft 517 kts 300°
2026-04-23 14:24 52.87133 -12.13600 36234 ft 517 kts 300°
2026-04-23 14:25 52.91221 -12.23424 36236 ft 517 kts 300°
2026-04-23 14:25 52.95279 -12.33217 36236 ft 517 kts 300°
2026-04-23 14:26 52.99357 -12.43095 36235 ft 518 kts 300°
2026-04-23 14:26 53.03405 -12.52937 36235 ft 519 kts 300°
2026-04-23 14:27 53.07481 -12.62885 36232 ft 519 kts 300°
2026-04-23 14:27 53.11527 -12.72802 36230 ft 520 kts 300°
2026-04-23 14:28 53.15587 -12.82791 36225 ft 520 kts 300°
2026-04-23 14:28 53.19617 -12.92744 36226 ft 520 kts 300°
2026-04-23 14:29 53.23671 -13.02797 36229 ft 521 kts 299°
2026-04-23 14:29 53.27684 -13.12790 36229 ft 521 kts 299°
2026-04-23 14:30 53.31725 -13.22890 36224 ft 522 kts 299°
2026-04-23 14:30 53.35752 -13.32996 36228 ft 522 kts 299°
2026-04-23 14:31 53.39780 -13.43145 36226 ft 522 kts 299°
2026-04-23 14:31 53.43783 -13.53271 36222 ft 523 kts 299°
2026-04-23 14:32 53.47776 -13.63414 36219 ft 523 kts 299°
2026-04-23 14:32 53.51785 -13.73639 36206 ft 523 kts 299°
2026-04-23 14:33 53.55779 -13.83867 36209 ft 524 kts 299°
2026-04-23 14:33 53.59778 -13.94150 36214 ft 524 kts 298°
2026-04-23 14:34 53.63745 -14.04392 36216 ft 523 kts 298°
2026-04-23 14:34 53.67725 -14.14711 36210 ft 524 kts 298°
2026-04-23 14:35 53.71669 -14.24978 36209 ft 524 kts 298°
2026-04-23 14:35 53.75632 -14.35335 36209 ft 525 kts 298°
2026-04-23 14:36 53.79594 -14.45734 36204 ft 525 kts 298°
2026-04-23 14:36 53.83538 -14.56129 36206 ft 525 kts 298°
2026-04-23 14:37 53.87467 -14.66528 36204 ft 525 kts 298°
2026-04-23 14:37 53.91410 -14.77008 36197 ft 526 kts 298°
2026-04-23 14:38 53.95341 -14.87501 36200 ft 527 kts 298°
2026-04-23 14:38 53.99135 -14.98086 36216 ft 521 kts 289°
2026-04-23 14:39 54.01174 -15.09661 36192 ft 512 kts 276°
2026-04-23 14:39 54.02622 -15.21573 36191 ft 512 kts 276°
2026-04-23 14:40 54.04033 -15.33434 36186 ft 513 kts 276°
2026-04-23 14:40 54.05445 -15.45292 36183 ft 513 kts 276°
2026-04-23 14:41 54.06845 -15.57250 36180 ft 513 kts 276°
2026-04-23 14:41 54.08233 -15.69150 36174 ft 513 kts 276°
2026-04-23 14:42 54.09611 -15.81109 36163 ft 513 kts 276°
2026-04-23 14:42 54.10971 -15.92996 36162 ft 513 kts 276°
2026-04-23 14:43 54.12328 -16.04985 36165 ft 513 kts 276°
2026-04-23 14:43 54.13664 -16.16892 36158 ft 513 kts 276°
2026-04-23 14:44 54.14998 -16.28903 36157 ft 514 kts 275°
2026-04-23 14:44 54.16310 -16.40826 36153 ft 514 kts 275°
2026-04-23 14:45 54.17620 -16.52850 36153 ft 513 kts 275°
2026-04-23 14:45 54.18910 -16.64801 36149 ft 513 kts 275°
2026-04-23 14:46 54.20188 -16.76761 36142 ft 513 kts 275°
2026-04-23 14:46 54.21452 -16.88706 36140 ft 513 kts 275°
2026-04-23 14:47 54.22712 -17.00733 36135 ft 513 kts 275°
2026-04-23 14:47 54.23951 -17.12679 36127 ft 513 kts 275°
2026-04-23 14:48 54.25183 -17.24688 36125 ft 513 kts 275°
2026-04-23 14:48 54.26408 -17.36740 36122 ft 513 kts 275°
2026-04-23 14:49 54.27619 -17.48783 36115 ft 513 kts 275°
2026-04-23 14:49 54.28814 -17.60803 36113 ft 513 kts 275°
2026-04-23 14:50 54.29997 -17.72817 36110 ft 513 kts 275°
2026-04-23 14:50 54.31166 -17.84822 36105 ft 513 kts 275°
2026-04-23 14:51 54.32323 -17.96836 36097 ft 513 kts 275°
2026-04-23 14:51 54.33475 -18.08925 36097 ft 514 kts 274°
2026-04-23 14:52 54.34615 -18.21024 36091 ft 514 kts 274°
2026-04-23 14:52 54.35747 -18.33175 36094 ft 514 kts 274°
2026-04-23 14:53 54.36859 -18.45244 36086 ft 514 kts 274°
2026-04-23 14:53 54.37965 -18.57386 36080 ft 514 kts 274°
2026-04-23 14:54 54.39052 -18.69458 36076 ft 514 kts 274°
2026-04-23 14:54 54.40131 -18.81590 36064 ft 514 kts 274°
2026-04-23 14:55 54.41201 -18.93754 36071 ft 515 kts 274°
2026-04-23 14:55 54.42261 -19.05950 36063 ft 515 kts 274°
2026-04-23 14:56 54.43301 -19.18074 36059 ft 515 kts 274°
2026-04-23 14:56 54.44337 -19.30287 36059 ft 515 kts 274°
2026-04-23 14:57 54.45187 -19.40430 36055 ft 516 kts 274°
2026-04-23 14:57 54.46365 -19.54665 36045 ft 516 kts 274°
2026-04-23 14:58 54.47197 -19.64850 36042 ft 516 kts 274°
2026-04-23 14:58 54.48186 -19.77092 36031 ft 517 kts 274°
2026-04-23 14:59 54.49162 -19.89337 36034 ft 517 kts 273°
2026-04-23 14:59 54.50149 -20.01545 36032 ft 518 kts 276°
2026-04-23 15:00 54.51269 -20.13830 36025 ft 518 kts 274°
2026-04-23 15:00 54.52377 -20.26106 36028 ft 519 kts 275°
2026-04-23 15:01 54.53483 -20.38391 36008 ft 519 kts 274°
2026-04-23 15:01 54.54563 -20.50697 36004 ft 519 kts 275°
2026-04-23 15:02 54.55636 -20.62910 36000 ft 519 kts 274°
2026-04-23 15:02 54.56692 -20.75199 36002 ft 519 kts 274°
2026-04-23 15:03 54.57744 -20.87512 35991 ft 519 kts 274°
2026-04-23 15:03 54.58780 -20.99845 36000 ft 519 kts 274°
2026-04-23 15:04 54.59806 -21.12172 36004 ft 520 kts 274°
2026-04-23 15:04 54.60814 -21.24465 35990 ft 520 kts 274°
2026-04-23 15:05 54.61815 -21.36829 35982 ft 520 kts 274°
2026-04-23 15:05 54.62805 -21.49222 35983 ft 521 kts 274°
2026-04-23 15:06 54.63784 -21.61621 35978 ft 521 kts 274°
2026-04-23 15:06 54.64747 -21.74009 35979 ft 520 kts 274°
2026-04-23 15:07 54.65694 -21.86338 35972 ft 520 kts 274°
2026-04-23 15:07 54.66633 -21.98743 35969 ft 520 kts 274°
2026-04-23 15:08 54.67560 -22.11171 35964 ft 521 kts 274°
2026-04-23 15:09 54.68928 -22.29819 35964 ft 521 kts 274°
2026-04-23 15:09 54.69821 -22.42223 35956 ft 522 kts 274°
2026-04-23 15:10 54.70707 -22.54707 35952 ft 522 kts 274°
2026-04-23 15:10 54.71575 -22.67127 35953 ft 523 kts 274°
2026-04-23 15:11 54.72437 -22.79656 35941 ft 524 kts 274°
2026-04-23 15:11 54.73287 -22.92189 35945 ft 524 kts 274°
2026-04-23 15:12 54.74119 -23.04669 35942 ft 525 kts 274°
2026-04-23 15:12 54.74946 -23.17255 35942 ft 525 kts 274°
2026-04-23 15:13 54.75758 -23.29828 35934 ft 525 kts 274°
2026-04-23 15:13 54.76556 -23.42379 35932 ft 525 kts 274°
2026-04-23 15:14 54.77343 -23.54979 35927 ft 526 kts 274°
2026-04-23 15:14 54.78113 -23.67515 35925 ft 526 kts 274°
2026-04-23 15:15 54.78876 -23.80159 35920 ft 527 kts 274°
2026-04-23 15:15 54.79627 -23.92820 35918 ft 527 kts 274°
2026-04-23 15:16 54.80364 -24.05476 35914 ft 528 kts 274°
2026-04-23 15:16 54.81085 -24.18091 35909 ft 529 kts 274°
2026-04-23 15:17 54.81799 -24.30814 35911 ft 529 kts 274°
2026-04-23 15:17 54.82495 -24.43450 35911 ft 529 kts 274°
2026-04-23 15:18 54.83183 -24.56192 35908 ft 529 kts 273°
2026-04-23 15:18 54.83857 -24.68929 35905 ft 530 kts 273°
2026-04-23 15:19 54.84514 -24.81591 35903 ft 530 kts 273°
2026-04-23 15:19 54.85162 -24.94344 35898 ft 530 kts 273°
2026-04-23 15:20 54.85796 -25.07091 35903 ft 529 kts 273°
2026-04-23 15:20 54.86413 -25.19768 35900 ft 529 kts 273°
2026-04-23 15:21 54.87005 -25.32182 35900 ft 529 kts 273°
2026-04-23 15:21 54.87592 -25.44771 35897 ft 529 kts 273°
2026-04-23 15:22 54.88153 -25.57099 35891 ft 530 kts 273°
2026-04-23 15:22 54.88722 -25.69864 35887 ft 528 kts 272°
2026-04-23 15:23 54.89275 -25.82593 35887 ft 528 kts 272°
2026-04-23 15:23 54.89811 -25.95235 35882 ft 527 kts 272°
2026-04-23 15:24 54.90337 -26.07960 35889 ft 527 kts 272°
2026-04-23 15:24 54.90850 -26.20693 35894 ft 527 kts 272°
2026-04-23 15:25 54.91349 -26.33365 35883 ft 527 kts 272°
2026-04-23 15:25 54.91833 -26.46076 35878 ft 526 kts 272°
2026-04-23 15:26 54.92306 -26.58785 35877 ft 526 kts 272°
2026-04-23 15:26 54.92764 -26.71485 35877 ft 526 kts 272°
2026-04-23 15:27 54.93206 -26.84108 35881 ft 525 kts 272°
2026-04-23 15:27 54.93638 -26.96794 35873 ft 525 kts 272°
2026-04-23 15:28 54.94056 -27.09488 35875 ft 524 kts 271°
2026-04-23 15:28 54.94460 -27.22157 35870 ft 524 kts 271°
2026-04-23 15:29 54.94849 -27.34759 35871 ft 524 kts 271°
2026-04-23 15:29 54.95227 -27.47417 35878 ft 523 kts 271°
2026-04-23 15:30 54.95589 -27.60026 35878 ft 523 kts 271°
2026-04-23 15:30 54.95940 -27.72674 35878 ft 523 kts 271°
2026-04-23 15:31 54.96278 -27.85326 35882 ft 522 kts 271°
2026-04-23 15:31 54.96602 -27.97971 35882 ft 522 kts 271°
2026-04-23 15:32 54.96912 -28.10533 35878 ft 522 kts 271°
2026-04-23 15:32 54.97210 -28.23169 35877 ft 522 kts 271°
2026-04-23 15:33 54.97495 -28.35826 35877 ft 521 kts 271°
2026-04-23 15:33 54.97765 -28.48386 35879 ft 521 kts 270°
2026-04-23 15:34 54.98023 -28.61007 35880 ft 521 kts 270°
2026-04-23 15:34 54.98268 -28.73629 35880 ft 521 kts 270°
2026-04-23 15:35 54.98499 -28.86196 35880 ft 521 kts 270°
2026-04-23 15:35 54.98718 -28.98764 35878 ft 521 kts 270°
2026-04-23 15:36 54.98924 -29.11429 35879 ft 521 kts 270°
2026-04-23 15:36 54.99117 -29.24069 35881 ft 521 kts 270°
2026-04-23 15:37 54.99296 -29.36590 35880 ft 521 kts 270°
2026-04-23 15:37 54.99436 -29.47176 35887 ft 521 kts 269°
2026-04-23 15:38 54.99617 -29.61878 35884 ft 521 kts 269°
2026-04-23 15:38 54.99757 -29.74443 35885 ft 521 kts 269°
2026-04-23 15:39 54.99885 -29.87092 35884 ft 521 kts 269°
2026-04-23 15:39 55.00003 -29.99652 35883 ft 521 kts 271°
2026-04-23 15:40 55.00509 -30.12285 35884 ft 523 kts 272°
2026-04-23 15:40 55.00993 -30.24920 35885 ft 521 kts 272°
2026-04-23 15:41 55.01488 -30.37469 35882 ft 521 kts 272°
2026-04-23 15:41 55.01953 -30.50067 35884 ft 520 kts 272°
2026-04-23 15:42 55.02415 -30.62597 35890 ft 521 kts 272°
2026-04-23 15:42 55.02858 -30.75205 35889 ft 521 kts 272°
2026-04-23 15:43 55.03293 -30.87820 35898 ft 521 kts 272°
2026-04-23 15:43 55.03711 -31.00381 35898 ft 520 kts 272°
2026-04-23 15:44 55.04119 -31.12970 35898 ft 520 kts 271°
2026-04-23 15:44 55.04511 -31.25582 35902 ft 519 kts 271°
2026-04-23 15:45 55.04892 -31.38168 35901 ft 519 kts 271°
2026-04-23 15:45 55.05258 -31.50711 35908 ft 519 kts 271°
2026-04-23 15:46 55.05611 -31.63222 35909 ft 519 kts 271°
2026-04-23 15:46 55.05952 -31.75820 35908 ft 519 kts 271°
2026-04-23 15:47 55.06280 -31.88404 35913 ft 519 kts 271°
2026-04-23 15:47 55.06543 -31.98870 35914 ft 519 kts 271°
2026-04-23 15:48 55.06896 -32.13513 35916 ft 518 kts 271°
2026-04-23 15:48 55.07139 -32.24046 35916 ft 518 kts 271°
2026-04-23 15:49 55.07416 -32.36608 35921 ft 518 kts 271°
2026-04-23 15:49 55.07680 -32.49116 35926 ft 518 kts 270°
2026-04-23 15:50 55.07930 -32.61621 35926 ft 517 kts 270°
2026-04-23 15:50 55.08170 -32.74177 35929 ft 516 kts 270°
2026-04-23 15:51 55.08395 -32.86733 35930 ft 516 kts 270°
2026-04-23 15:51 55.08607 -32.99192 35933 ft 515 kts 270°
2026-04-23 15:52 55.08806 -33.11725 35937 ft 515 kts 270°
2026-04-23 15:52 55.08992 -33.24162 35940 ft 515 kts 270°
2026-04-23 15:53 55.09167 -33.36695 35941 ft 515 kts 270°
2026-04-23 15:53 55.09327 -33.49214 35944 ft 515 kts 270°
2026-04-23 15:54 55.09475 -33.61709 35951 ft 514 kts 270°
2026-04-23 15:54 55.09610 -33.74141 35954 ft 514 kts 270°
2026-04-23 15:55 55.09733 -33.86624 35956 ft 514 kts 270°
2026-04-23 15:55 55.09841 -33.99126 35958 ft 514 kts 270°
2026-04-23 15:56 55.09939 -34.11574 35970 ft 514 kts 270°
2026-04-23 15:56 55.10022 -34.24049 35974 ft 514 kts 270°
2026-04-23 15:57 55.10094 -34.36472 35976 ft 513 kts 269°
2026-04-23 15:57 55.10152 -34.48923 35963 ft 512 kts 269°
2026-04-23 15:58 55.10197 -34.61396 35978 ft 513 kts 269°
2026-04-23 15:58 55.10231 -34.73793 35972 ft 512 kts 269°
2026-04-23 15:59 55.10251 -34.86212 35973 ft 512 kts 269°
2026-04-23 15:59 55.10259 -34.98698 35978 ft 512 kts 269°
2026-04-23 16:00 55.10253 -35.11059 35981 ft 511 kts 269°
2026-04-23 16:00 55.10234 -35.23543 35981 ft 512 kts 269°
2026-04-23 16:01 55.10207 -35.35923 35991 ft 513 kts 268°
2026-04-23 16:01 55.10162 -35.48376 35990 ft 512 kts 269°
2026-04-23 16:02 55.10108 -35.60771 35989 ft 512 kts 268°
2026-04-23 16:02 55.10038 -35.73243 35983 ft 512 kts 268°
2026-04-23 16:03 55.09958 -35.85715 36000 ft 513 kts 268°
2026-04-23 16:03 55.09864 -35.98109 36003 ft 512 kts 268°
2026-04-23 16:04 55.09758 -36.10568 36007 ft 512 kts 268°
2026-04-23 16:04 55.09639 -36.23019 36003 ft 512 kts 269°
2026-04-23 16:05 55.09530 -36.33364 36006 ft 512 kts 268°
2026-04-23 16:05 55.09363 -36.47842 36011 ft 512 kts 269°
2026-04-23 16:06 55.09207 -36.60258 36012 ft 512 kts 268°
2026-04-23 16:06 55.09038 -36.72593 36015 ft 511 kts 268°
2026-04-23 16:07 55.08856 -36.85014 36019 ft 511 kts 268°
2026-04-23 16:07 55.08662 -36.97424 36019 ft 510 kts 268°
2026-04-23 16:08 55.08456 -37.09806 36020 ft 510 kts 268°
2026-04-23 16:08 55.08237 -37.22143 36019 ft 510 kts 268°
2026-04-23 16:09 55.08005 -37.34517 36021 ft 509 kts 268°
2026-04-23 16:09 55.07763 -37.46797 36028 ft 508 kts 268°
2026-04-23 16:10 55.07509 -37.59075 36036 ft 507 kts 268°
2026-04-23 16:10 55.07241 -37.71389 36037 ft 507 kts 268°
2026-04-23 16:11 55.06961 -37.83672 36040 ft 507 kts 268°
2026-04-23 16:11 55.06668 -37.95985 36042 ft 507 kts 268°
2026-04-23 16:12 55.06366 -38.08211 36043 ft 506 kts 268°
2026-04-23 16:12 55.06049 -38.20492 36043 ft 505 kts 268°
2026-04-23 16:13 55.05723 -38.32668 36047 ft 505 kts 268°
2026-04-23 16:13 55.05207 -38.51060 36050 ft 505 kts 268°
2026-04-23 16:14 55.04848 -38.63311 36053 ft 505 kts 268°
2026-04-23 16:14 55.04479 -38.75490 36058 ft 505 kts 268°
2026-04-23 16:15 55.04097 -38.87663 36058 ft 505 kts 268°
2026-04-23 16:15 55.03702 -38.99884 36053 ft 504 kts 267°
2026-04-23 16:16 55.03294 -39.12122 36064 ft 504 kts 268°
2026-04-23 16:16 55.02877 -39.24275 36066 ft 504 kts 267°
2026-04-23 16:17 55.02445 -39.36480 36069 ft 504 kts 268°
2026-04-23 16:17 55.02001 -39.48722 36072 ft 504 kts 267°
2026-04-23 16:18 55.01547 -39.60853 36071 ft 503 kts 267°
2026-04-23 16:18 55.01079 -39.73049 36073 ft 504 kts 267°
2026-04-23 16:19 55.00599 -39.85234 36072 ft 504 kts 267°
2026-04-23 16:19 55.00108 -39.97351 36080 ft 504 kts 266°
2026-04-23 16:20 54.98615 -40.09330 36089 ft 507 kts 256°
2026-04-23 16:20 54.96790 -40.21141 36095 ft 507 kts 256°
2026-04-23 16:21 54.94983 -40.33058 36081 ft 507 kts 256°
2026-04-23 16:21 54.93160 -40.44833 36085 ft 507 kts 256°
2026-04-23 16:22 54.91326 -40.56677 36082 ft 506 kts 256°
2026-04-23 16:22 54.89474 -40.68517 36079 ft 507 kts 256°
2026-04-23 16:23 54.87622 -40.80280 36088 ft 507 kts 256°
2026-04-23 16:23 54.85747 -40.92112 36086 ft 507 kts 256°
2026-04-23 16:24 54.83860 -41.03922 36079 ft 507 kts 256°
2026-04-23 16:24 54.81976 -41.15648 36082 ft 507 kts 256°
2026-04-23 16:25 54.80069 -41.27424 36085 ft 506 kts 256°
2026-04-23 16:25 54.78152 -41.39188 36370 ft 507 kts 254°
2026-04-23 16:26 54.77184 -41.45114 36247 ft 513 kts 253°
2026-04-23 16:26 54.76215 -41.50973 36109 ft 507 kts 253°
2026-04-23 16:26 54.74271 -41.62744 36102 ft 510 kts 253°
2026-04-23 16:27 54.72310 -41.74529 36101 ft 509 kts 253°
2026-04-23 16:27 54.70334 -41.86323 36102 ft 510 kts 253°
2026-04-23 16:28 54.68359 -41.98039 36101 ft 510 kts 253°
2026-04-23 16:28 54.66361 -42.09803 36107 ft 510 kts 253°
2026-04-23 16:29 54.64345 -42.21597 36105 ft 510 kts 253°
2026-04-23 16:29 54.62336 -42.33275 36103 ft 510 kts 253°
2026-04-23 16:30 54.60300 -42.45026 36101 ft 510 kts 252°
2026-04-23 16:30 54.58259 -42.56734 36099 ft 510 kts 252°
2026-04-23 16:31 54.56208 -42.68425 36102 ft 510 kts 252°
2026-04-23 16:31 54.54150 -42.80077 36095 ft 510 kts 252°
2026-04-23 16:32 54.52068 -42.91787 36098 ft 510 kts 252°
2026-04-23 16:32 54.49979 -43.03463 36095 ft 511 kts 252°
2026-04-23 16:33 54.47881 -43.15110 36098 ft 511 kts 252°
2026-04-23 16:33 54.45768 -43.26781 36094 ft 511 kts 252°
2026-04-23 16:34 54.43711 -43.38052 36090 ft 511 kts 252°
2026-04-23 16:34 54.41584 -43.49654 36094 ft 511 kts 252°
2026-04-23 16:35 54.39443 -43.61247 36090 ft 511 kts 252°
2026-04-23 16:35 54.37293 -43.72823 36088 ft 511 kts 252°
2026-04-23 16:36 54.35116 -43.84468 36091 ft 511 kts 252°
2026-04-23 16:36 54.32942 -43.96024 36092 ft 512 kts 252°
2026-04-23 16:37 54.30745 -44.07636 36086 ft 512 kts 251°
2026-04-23 16:37 54.28543 -44.19198 36087 ft 512 kts 251°
2026-04-23 16:38 54.26318 -44.30818 36083 ft 512 kts 251°
2026-04-23 16:38 54.24095 -44.42352 36087 ft 512 kts 251°
2026-04-23 16:39 54.22234 -44.51953 36084 ft 512 kts 251°
2026-04-23 16:39 54.19612 -44.65404 36082 ft 512 kts 251°
2026-04-23 16:40 54.17725 -44.75025 36077 ft 513 kts 251°
2026-04-23 16:40 54.15453 -44.86543 36083 ft 513 kts 251°
2026-04-23 16:41 54.13158 -44.98113 36081 ft 513 kts 251°
2026-04-23 16:41 54.10870 -45.09579 36076 ft 513 kts 251°
2026-04-23 16:42 54.08556 -45.21106 36076 ft 513 kts 251°
2026-04-23 16:42 54.06251 -45.32524 36076 ft 513 kts 251°
2026-04-23 16:43 54.03915 -45.44026 36073 ft 513 kts 251°
2026-04-23 16:43 54.01569 -45.55511 36066 ft 513 kts 251°
2026-04-23 16:44 53.99225 -45.66922 36066 ft 513 kts 251°
2026-04-23 16:44 53.96859 -45.78368 36059 ft 513 kts 251°
2026-04-23 16:45 53.94487 -45.89787 36065 ft 513 kts 250°
2026-04-23 16:45 53.92110 -46.01156 36056 ft 513 kts 250°
2026-04-23 16:46 53.89706 -46.12595 36051 ft 513 kts 250°
2026-04-23 16:46 53.87307 -46.23945 36050 ft 512 kts 250°
2026-04-23 16:47 53.84890 -46.35317 36049 ft 512 kts 250°
2026-04-23 16:47 53.82467 -46.46654 36045 ft 512 kts 250°
2026-04-23 16:48 53.80041 -46.57940 36039 ft 512 kts 250°
2026-04-23 16:48 53.77608 -46.69196 36038 ft 511 kts 250°
2026-04-23 16:49 53.76380 -46.74846 35427 ft 502 kts 251°
2026-04-23 16:49 53.75190 -46.80315 35549 ft 484 kts 251°
2026-04-23 16:49 53.74045 -46.85569 35659 ft 481 kts 251°
2026-04-23 16:49 53.72880 -46.90907 35788 ft 485 kts 251°
2026-04-23 16:50 53.71700 -46.96281 35910 ft 485 kts 250°
2026-04-23 16:50 53.70524 -47.01623 36028 ft 485 kts 250°
2026-04-23 16:50 53.68187 -47.12216 36023 ft 483 kts 250°
2026-04-23 16:51 53.65841 -47.22790 36027 ft 481 kts 250°
2026-04-23 16:51 53.63478 -47.33387 36021 ft 481 kts 250°
2026-04-23 16:52 53.61128 -47.43875 36024 ft 479 kts 249°
2026-04-23 16:52 53.58775 -47.54319 36018 ft 478 kts 249°
2026-04-23 16:53 53.56399 -47.64817 36024 ft 476 kts 249°
2026-04-23 16:53 53.54043 -47.75175 36018 ft 475 kts 249°
2026-04-23 16:54 53.51672 -47.85545 36014 ft 473 kts 248°
2026-04-23 16:54 53.49299 -47.95872 36005 ft 473 kts 248°
2026-04-23 16:55 53.46941 -48.06095 36007 ft 471 kts 248°
2026-04-23 16:55 53.44562 -48.16346 36010 ft 470 kts 248°
2026-04-23 16:56 53.42195 -48.26504 36001 ft 468 kts 247°
2026-04-23 16:56 53.39815 -48.36671 35995 ft 468 kts 247°
2026-04-23 16:57 53.37425 -48.46832 36007 ft 468 kts 247°
2026-04-23 16:57 53.35040 -48.56913 36006 ft 468 kts 246°
2026-04-23 16:58 53.32625 -48.67081 35992 ft 468 kts 246°
2026-04-23 16:58 53.30212 -48.77203 35990 ft 468 kts 246°
2026-04-23 16:59 53.27796 -48.87269 35980 ft 468 kts 246°
2026-04-23 16:59 53.25369 -48.97354 35978 ft 468 kts 246°
2026-04-23 17:00 53.22931 -49.07423 35963 ft 467 kts 245°
2026-04-23 17:00 53.20494 -49.17454 35978 ft 468 kts 245°
2026-04-23 17:01 53.18036 -49.27517 35976 ft 469 kts 245°
2026-04-23 17:01 53.15576 -49.37545 35980 ft 468 kts 245°
2026-04-23 17:02 53.13099 -49.47599 35973 ft 468 kts 245°
2026-04-23 17:02 53.10613 -49.57640 35963 ft 468 kts 245°
2026-04-23 17:03 53.08142 -49.67575 35962 ft 468 kts 245°
2026-04-23 17:03 53.05641 -49.77587 35959 ft 468 kts 244°
2026-04-23 17:04 53.03131 -49.87586 35958 ft 468 kts 244°
2026-04-23 17:04 53.00632 -49.97501 35961 ft 468 kts 244°
2026-04-23 17:05 52.98219 -50.07555 35952 ft 468 kts 245°
2026-04-23 17:05 52.95771 -50.17573 35953 ft 468 kts 245°
2026-04-23 17:06 52.93387 -50.27548 35936 ft 468 kts 245°
2026-04-23 17:06 52.90952 -50.37540 35949 ft 468 kts 245°
2026-04-23 17:07 52.88517 -50.47566 35938 ft 468 kts 244°
2026-04-23 17:07 52.86080 -50.57516 35936 ft 468 kts 244°
2026-04-23 17:08 52.83627 -50.67501 35931 ft 468 kts 244°
2026-04-23 17:08 52.81174 -50.77433 35929 ft 468 kts 244°
2026-04-23 17:09 52.78707 -50.87381 35919 ft 469 kts 244°
2026-04-23 17:09 52.76220 -50.97368 35921 ft 469 kts 244°
2026-04-23 17:10 52.73723 -51.07344 35914 ft 470 kts 243°
2026-04-23 17:10 52.71220 -51.17300 35915 ft 470 kts 243°
2026-04-23 17:11 52.68721 -51.27198 35902 ft 471 kts 243°
2026-04-23 17:11 52.66186 -51.37195 35906 ft 471 kts 243°
2026-04-23 17:12 52.63651 -51.47143 35900 ft 472 kts 243°
2026-04-23 17:12 52.61114 -51.57060 35895 ft 472 kts 243°
2026-04-23 17:13 52.58556 -51.67009 35891 ft 473 kts 243°
2026-04-23 17:13 52.55980 -51.76987 35883 ft 473 kts 242°
2026-04-23 17:14 52.53397 -51.86947 35886 ft 473 kts 242°
2026-04-23 17:14 52.50819 -51.96848 35883 ft 474 kts 242°
2026-04-23 17:15 52.48208 -52.06827 35875 ft 475 kts 242°
2026-04-23 17:15 52.45603 -52.16742 35873 ft 475 kts 242°
2026-04-23 17:16 52.42970 -52.26717 35864 ft 476 kts 242°
2026-04-23 17:16 52.40345 -52.36621 35856 ft 476 kts 241°
2026-04-23 17:17 52.37695 -52.46577 35852 ft 477 kts 241°
2026-04-23 17:17 52.35042 -52.56499 35852 ft 477 kts 241°
2026-04-23 17:18 52.31028 -52.71431 35846 ft 478 kts 241°
2026-04-23 17:19 52.28344 -52.81362 35841 ft 478 kts 240°
2026-04-23 17:19 52.25645 -52.91304 35836 ft 478 kts 240°
2026-04-23 17:19 52.24301 -52.96219 36137 ft 483 kts 244°
2026-04-23 17:20 52.22915 -53.01307 36008 ft 496 kts 244°
2026-04-23 17:20 52.20036 -53.11837 35821 ft 515 kts 244°
2026-04-23 17:21 52.17088 -53.22546 35823 ft 517 kts 244°
2026-04-23 17:21 52.12678 -53.38490 35814 ft 517 kts 243°
2026-04-23 17:22 52.08225 -53.54474 35809 ft 517 kts 243°
2026-04-23 17:23 52.03753 -53.70418 35791 ft 516 kts 243°
2026-04-23 17:24 51.99261 -53.86323 35794 ft 516 kts 243°
2026-04-23 17:24 51.94769 -54.02123 35786 ft 515 kts 242°
2026-04-23 17:25 51.90255 -54.17894 35777 ft 515 kts 242°
2026-04-23 17:26 51.84188 -54.38925 35775 ft 515 kts 242°
2026-04-23 17:27 51.79553 -54.54524 35776 ft 511 kts 234°
2026-04-23 17:27 51.75856 -54.64307 35765 ft 513 kts 235°
2026-04-23 17:28 51.72122 -54.74146 35760 ft 513 kts 234°
2026-04-23 17:28 51.68380 -54.83971 35755 ft 514 kts 234°
2026-04-23 17:29 51.64648 -54.93731 35755 ft 514 kts 234°
2026-04-23 17:30 51.59628 -55.06803 35740 ft 515 kts 234°
2026-04-23 17:30 51.53345 -55.23070 35742 ft 516 kts 234°
2026-04-23 17:31 51.49537 -55.32879 35726 ft 516 kts 233°
2026-04-23 17:31 51.46364 -55.41024 35729 ft 517 kts 233°
2026-04-23 17:32 51.42544 -55.50795 35735 ft 517 kts 233°
2026-04-23 17:32 51.38736 -55.60500 35728 ft 517 kts 233°
2026-04-23 17:33 51.34898 -55.70241 35729 ft 518 kts 233°
2026-04-23 17:33 51.31035 -55.80014 35728 ft 518 kts 233°
2026-04-23 17:34 51.27195 -55.89688 35722 ft 518 kts 232°
2026-04-23 17:35 51.21384 -56.04261 35718 ft 519 kts 232°
2026-04-23 17:35 51.15564 -56.18776 35715 ft 519 kts 232°
2026-04-23 17:36 51.11666 -56.28449 35713 ft 520 kts 232°
2026-04-23 17:36 51.07752 -56.38129 35717 ft 520 kts 232°
2026-04-23 17:37 51.03813 -56.47832 35714 ft 521 kts 231°
2026-04-23 17:38 50.97917 -56.62292 35716 ft 521 kts 231°
2026-04-23 17:38 50.93950 -56.71974 35708 ft 522 kts 231°
2026-04-23 17:39 50.89978 -56.81634 35720 ft 522 kts 231°
2026-04-23 17:39 50.86019 -56.91224 35722 ft 523 kts 231°
2026-04-23 17:40 50.82024 -57.00869 35726 ft 522 kts 231°
2026-04-23 17:40 50.78049 -57.10430 35727 ft 523 kts 230°
2026-04-23 17:41 50.74047 -57.20020 35729 ft 523 kts 230°
2026-04-23 17:41 50.68014 -57.34408 35731 ft 523 kts 230°
2026-04-23 17:42 50.61983 -57.48717 35743 ft 523 kts 230°
2026-04-23 17:43 50.57971 -57.58189 35750 ft 523 kts 230°
2026-04-23 17:43 50.53924 -57.67712 35759 ft 522 kts 230°
2026-04-23 17:44 50.49877 -57.77199 35758 ft 522 kts 230°
2026-04-23 17:44 50.43817 -57.91341 35766 ft 521 kts 230°
2026-04-23 17:45 50.37729 -58.05472 35772 ft 520 kts 230°
2026-04-23 17:46 50.31658 -58.19491 35775 ft 520 kts 230°
2026-04-23 17:46 50.27580 -58.28865 35763 ft 519 kts 230°
2026-04-23 17:47 50.23527 -58.38147 35777 ft 519 kts 230°
2026-04-23 17:48 50.17397 -58.52126 35778 ft 519 kts 230°
2026-04-23 17:48 50.13337 -58.61343 35779 ft 519 kts 230°
2026-04-23 17:49 50.09238 -58.70617 35783 ft 518 kts 229°
2026-04-23 17:49 50.05130 -58.79879 35782 ft 518 kts 229°
2026-04-23 17:50 50.01048 -58.89050 35780 ft 518 kts 229°
2026-04-23 17:50 49.94877 -59.02854 35783 ft 517 kts 229°
2026-04-23 17:51 49.90755 -59.12033 35783 ft 517 kts 229°
2026-04-23 17:52 49.84572 -59.25744 35788 ft 518 kts 229°
2026-04-23 17:52 49.78389 -59.39387 35790 ft 518 kts 229°
2026-04-23 17:53 49.72156 -59.53066 35797 ft 517 kts 229°
2026-04-23 17:54 49.68002 -59.62146 35796 ft 517 kts 229°
2026-04-23 17:54 49.61770 -59.75707 35806 ft 517 kts 229°
2026-04-23 17:55 49.55515 -59.89251 35797 ft 516 kts 229°
2026-04-23 17:56 49.51362 -59.98204 35804 ft 516 kts 229°
2026-04-23 17:56 49.45085 -60.11681 35809 ft 516 kts 229°
2026-04-23 17:57 49.40898 -60.20631 35810 ft 515 kts 229°
2026-04-23 17:58 49.34632 -60.33973 35816 ft 515 kts 230°
2026-04-23 17:58 49.30423 -60.42897 35816 ft 514 kts 230°
2026-04-23 17:59 49.26249 -60.51717 35821 ft 514 kts 230°
2026-04-23 17:59 49.22036 -60.60588 35826 ft 513 kts 230°
2026-04-23 18:00 49.17851 -60.69373 35827 ft 512 kts 230°
2026-04-23 18:00 49.13643 -60.78178 35835 ft 512 kts 230°
2026-04-23 18:01 49.09462 -60.86899 35835 ft 511 kts 230°
2026-04-23 18:01 49.05244 -60.95666 35837 ft 511 kts 230°
2026-04-23 18:02 49.01733 -61.02943 35828 ft 511 kts 230°
2026-04-23 18:02 48.96828 -61.13075 35837 ft 510 kts 230°
2026-04-23 18:03 48.92607 -61.21764 35840 ft 510 kts 230°
2026-04-23 18:03 48.88377 -61.30443 35834 ft 509 kts 230°
2026-04-23 18:04 48.84150 -61.39089 35838 ft 509 kts 230°
2026-04-23 18:04 48.79944 -61.47664 35847 ft 508 kts 230°
2026-04-23 18:05 48.75713 -61.56262 35850 ft 508 kts 230°
2026-04-23 18:05 48.71467 -61.64864 35849 ft 508 kts 230°
2026-04-23 18:06 48.67245 -61.73387 35847 ft 508 kts 230°
2026-04-23 18:06 48.62999 -61.81936 35849 ft 507 kts 230°
2026-04-23 18:07 48.58774 -61.90412 35853 ft 507 kts 230°
2026-04-23 18:07 48.54515 -61.98931 35852 ft 507 kts 230°
2026-04-23 18:08 48.50980 -62.05981 35854 ft 507 kts 230°
2026-04-23 18:08 48.46002 -62.15879 35858 ft 507 kts 230°
2026-04-23 18:09 48.41749 -62.24307 35860 ft 506 kts 231°
2026-04-23 18:09 48.37481 -62.32737 35856 ft 506 kts 231°
2026-04-23 18:10 48.33213 -62.41140 35864 ft 505 kts 231°
2026-04-23 18:10 48.28961 -62.49488 35870 ft 506 kts 231°
2026-04-23 18:11 48.24677 -62.57873 35872 ft 505 kts 231°
2026-04-23 18:11 48.20388 -62.66238 35873 ft 505 kts 231°
2026-04-23 18:12 48.16115 -62.74551 35876 ft 506 kts 231°
2026-04-23 18:12 48.11831 -62.82856 35876 ft 505 kts 231°
2026-04-23 18:13 48.07515 -62.91199 35875 ft 505 kts 231°
2026-04-23 18:13 48.03230 -62.99457 35879 ft 504 kts 231°
2026-04-23 18:14 47.99643 -63.06350 35884 ft 505 kts 231°
2026-04-23 18:14 47.94612 -63.15989 35884 ft 504 kts 231°
2026-04-23 18:15 47.90289 -63.24244 35885 ft 504 kts 231°
2026-04-23 18:15 47.85989 -63.32431 35886 ft 504 kts 231°
2026-04-23 18:16 47.81665 -63.40639 35884 ft 503 kts 231°
2026-04-23 18:16 47.77336 -63.48831 35884 ft 503 kts 231°
2026-04-23 18:17 47.70830 -63.61096 35885 ft 503 kts 231°
2026-04-23 18:17 47.66508 -63.69215 35885 ft 503 kts 231°
2026-04-23 18:18 47.62187 -63.77307 35886 ft 502 kts 231°
2026-04-23 18:18 47.57827 -63.85447 35879 ft 502 kts 231°
2026-04-23 18:19 47.53487 -63.93525 35879 ft 502 kts 231°
2026-04-23 18:19 47.49149 -64.01577 35884 ft 502 kts 231°
2026-04-23 18:20 47.44777 -64.09667 35882 ft 502 kts 231°
2026-04-23 18:20 47.40433 -64.17684 35882 ft 502 kts 231°
2026-04-23 18:21 47.36059 -64.25729 35882 ft 502 kts 231°
2026-04-23 18:21 47.31675 -64.33771 35884 ft 502 kts 231°
2026-04-23 18:22 47.27316 -64.41744 35882 ft 502 kts 231°
2026-04-23 18:22 47.22918 -64.49763 35884 ft 502 kts 231°
2026-04-23 18:23 47.16347 -64.61701 35883 ft 501 kts 231°
2026-04-23 18:24 47.10480 -64.72318 35885 ft 501 kts 231°
2026-04-23 18:25 47.03897 -64.84181 35884 ft 501 kts 231°
2026-04-23 18:25 46.99483 -64.92107 35882 ft 501 kts 232°
2026-04-23 18:26 46.95086 -64.99978 35885 ft 501 kts 231°
2026-04-23 18:26 46.90656 -65.07888 35880 ft 501 kts 231°
2026-04-23 18:27 46.86256 -65.15719 35877 ft 500 kts 231°
2026-04-23 18:27 46.81840 -65.23559 35875 ft 501 kts 231°
2026-04-23 18:28 46.77406 -65.31406 35872 ft 500 kts 231°
2026-04-23 18:28 46.72987 -65.39205 35865 ft 499 kts 231°
2026-04-23 18:29 46.68531 -65.47048 35869 ft 499 kts 231°
2026-04-23 18:29 46.64121 -65.54787 35861 ft 499 kts 231°
2026-04-23 18:30 46.59675 -65.62567 35861 ft 500 kts 232°
2026-04-23 18:30 46.55215 -65.70351 35859 ft 500 kts 232°
2026-04-23 18:31 46.50754 -65.78114 35852 ft 500 kts 232°
2026-04-23 18:31 46.46306 -65.85832 35859 ft 500 kts 232°
2026-04-23 18:32 46.41836 -65.93567 35854 ft 500 kts 232°
2026-04-23 18:32 46.37384 -66.01249 35852 ft 500 kts 232°
2026-04-23 18:33 46.32899 -66.08966 35850 ft 500 kts 232°
2026-04-23 18:33 46.28435 -66.16626 35857 ft 500 kts 232°
2026-04-23 18:34 46.23937 -66.24324 35853 ft 500 kts 232°
2026-04-23 18:34 46.19441 -66.31995 35850 ft 500 kts 232°
2026-04-23 18:35 46.14941 -66.39653 35851 ft 500 kts 232°
2026-04-23 18:35 46.10467 -66.47246 35855 ft 499 kts 232°
2026-04-23 18:36 46.05966 -66.54862 35850 ft 499 kts 232°
2026-04-23 18:36 46.01462 -66.62464 35851 ft 499 kts 232°
2026-04-23 18:37 45.96951 -66.70056 35851 ft 498 kts 232°
2026-04-23 18:37 45.92443 -66.77623 35852 ft 498 kts 232°
2026-04-23 18:38 45.87957 -66.85133 35856 ft 499 kts 232°
2026-04-23 18:38 45.83426 -66.92695 35854 ft 499 kts 232°
2026-04-23 18:39 45.78897 -67.00235 35855 ft 499 kts 232°
2026-04-23 18:39 45.74362 -67.07765 35864 ft 499 kts 232°
2026-04-23 18:40 45.70002 -67.14985 35863 ft 499 kts 232°
2026-04-23 18:40 45.65445 -67.22511 35864 ft 499 kts 233°
2026-04-23 18:41 45.60916 -67.29970 35871 ft 499 kts 233°
2026-04-23 18:41 45.56362 -67.37451 35870 ft 498 kts 233°
2026-04-23 18:42 45.51823 -67.44887 35869 ft 499 kts 233°
2026-04-23 18:42 45.47249 -67.52360 35874 ft 499 kts 233°
2026-04-23 18:43 45.42676 -67.59811 35872 ft 499 kts 233°
2026-04-23 18:43 45.38127 -67.67202 35884 ft 499 kts 233°
2026-04-23 18:44 45.33548 -67.74625 35883 ft 499 kts 233°
2026-04-23 18:44 45.28883 -67.81972 35874 ft 500 kts 232°
2026-04-23 18:45 45.24252 -67.89267 35871 ft 499 kts 232°
2026-04-23 18:45 45.19598 -67.96585 35871 ft 499 kts 232°
2026-04-23 18:46 45.14956 -68.03852 35870 ft 499 kts 232°
2026-04-23 18:46 45.10279 -68.11168 35870 ft 499 kts 232°
2026-04-23 18:47 45.05636 -68.18402 35873 ft 499 kts 232°
2026-04-23 18:47 45.00946 -68.25696 35877 ft 499 kts 232°
2026-04-23 18:48 44.96286 -68.32920 35875 ft 499 kts 233°
2026-04-23 18:48 44.91596 -68.40174 35880 ft 499 kts 233°
2026-04-23 18:49 44.86935 -68.47364 35878 ft 499 kts 233°
2026-04-23 18:49 44.82237 -68.54592 35881 ft 499 kts 233°
2026-04-23 18:50 44.78325 -68.60597 35888 ft 499 kts 233°
2026-04-23 18:50 44.72857 -68.68969 35885 ft 499 kts 233°
2026-04-23 18:51 44.68147 -68.76159 35887 ft 499 kts 233°
2026-04-23 18:51 44.63433 -68.83337 35885 ft 499 kts 233°
2026-04-23 18:52 44.58741 -68.90463 35891 ft 499 kts 233°
2026-04-23 18:52 44.54021 -68.97614 35877 ft 498 kts 233°
2026-04-23 18:53 44.49304 -69.04742 35886 ft 498 kts 233°
2026-04-23 18:53 44.44614 -69.11812 35883 ft 498 kts 233°
2026-04-23 18:54 44.39890 -69.18912 35892 ft 497 kts 234°
2026-04-23 18:54 44.35170 -69.25991 35888 ft 497 kts 234°
2026-04-23 18:55 44.30474 -69.33015 35884 ft 497 kts 234°
2026-04-23 18:55 44.25745 -69.40072 35893 ft 496 kts 234°
2026-04-23 18:56 44.21847 -69.45874 35901 ft 496 kts 234°
2026-04-23 18:56 44.16312 -69.54092 35904 ft 495 kts 234°
2026-04-23 18:57 44.11615 -69.61048 35905 ft 495 kts 234°
2026-04-23 18:57 44.06910 -69.67998 35903 ft 495 kts 234°
2026-04-23 18:58 44.02179 -69.74969 35906 ft 494 kts 235°
2026-04-23 18:58 43.97452 -69.81917 35906 ft 494 kts 235°
2026-04-23 18:59 43.92748 -69.88813 35923 ft 494 kts 235°
2026-04-23 18:59 43.88010 -69.95745 35927 ft 493 kts 235°
2026-04-23 19:00 43.83308 -70.02603 35925 ft 493 kts 236°
2026-04-23 19:00 43.78571 -70.09498 35919 ft 493 kts 236°
2026-04-23 19:01 43.73859 -70.16339 35884 ft 493 kts 236°
2026-04-23 19:01 43.69138 -70.23177 35882 ft 493 kts 236°
2026-04-23 19:02 43.65197 -70.28872 35876 ft 493 kts 236°
2026-04-23 19:02 43.59644 -70.36877 35878 ft 493 kts 236°
2026-04-23 19:03 43.54915 -70.43675 35888 ft 493 kts 236°
2026-04-23 19:03 43.50165 -70.50488 35872 ft 492 kts 237°
2026-04-23 19:04 43.45407 -70.57297 35864 ft 492 kts 237°
2026-04-23 19:04 43.40673 -70.64068 35858 ft 492 kts 237°
2026-04-23 19:05 43.35974 -70.70910 35861 ft 492 kts 238°
2026-04-23 19:05 43.31261 -70.77691 35862 ft 492 kts 238°
2026-04-23 19:06 43.26518 -70.84533 35861 ft 493 kts 238°
2026-04-23 19:06 43.21803 -70.91301 35860 ft 493 kts 238°
2026-04-23 19:07 43.17058 -70.98101 35858 ft 493 kts 238°
2026-04-23 19:07 43.12331 -71.04859 35860 ft 493 kts 238°
2026-04-23 19:08 43.07583 -71.11629 35868 ft 492 kts 238°
2026-04-23 19:08 43.02817 -71.18414 35879 ft 494 kts 238°
2026-04-23 19:09 42.98071 -71.25147 35880 ft 493 kts 238°
2026-04-23 19:09 42.93295 -71.31914 35869 ft 493 kts 238°
2026-04-23 19:10 42.88543 -71.38626 35869 ft 493 kts 238°
2026-04-23 19:10 42.83792 -71.45320 35879 ft 492 kts 238°
2026-04-23 19:11 42.79043 -71.52000 35885 ft 492 kts 238°
2026-04-23 19:11 42.74266 -71.58698 35879 ft 491 kts 238°
2026-04-23 19:12 42.70302 -71.64247 35882 ft 490 kts 238°
2026-04-23 19:12 42.64762 -71.71983 35898 ft 489 kts 238°
2026-04-23 19:13 42.60018 -71.78593 35901 ft 489 kts 238°
2026-04-23 19:13 42.55269 -71.85192 35895 ft 489 kts 238°
2026-04-23 19:14 42.50519 -71.91777 35900 ft 489 kts 238°
2026-04-23 19:14 42.45749 -71.98376 35905 ft 489 kts 238°
2026-04-23 19:15 42.40999 -72.04932 35905 ft 489 kts 238°
2026-04-23 19:15 42.37031 -72.10396 35907 ft 489 kts 238°
2026-04-23 19:16 42.32233 -72.16989 35904 ft 490 kts 238°
2026-04-23 19:16 42.26697 -72.24576 35907 ft 489 kts 237°
2026-04-23 19:17 42.20305 -72.33316 35881 ft 489 kts 237°
2026-04-23 19:17 42.15535 -72.39817 35878 ft 489 kts 237°
2026-04-23 19:18 42.10736 -72.46346 35869 ft 489 kts 237°
2026-04-23 19:18 42.05963 -72.52822 35874 ft 489 kts 237°
2026-04-23 19:19 41.98752 -72.62578 35735 ft 487 kts 237°
2026-04-23 19:20 41.94635 -72.69425 34690 ft 456 kts 253°
2026-04-23 19:20 41.93206 -72.73165 34315 ft 444 kts 261°
2026-04-23 19:20 41.92180 -72.76981 33988 ft 436 kts 265°
2026-04-23 19:20 41.91245 -72.80863 33632 ft 436 kts 265°
2026-04-23 19:21 41.90308 -72.84777 33299 ft 438 kts 265°
2026-04-23 19:21 41.88455 -72.92551 32692 ft 440 kts 265°
2026-04-23 19:21 41.87510 -72.96470 32405 ft 437 kts 265°
2026-04-23 19:22 41.86588 -73.00303 32137 ft 436 kts 265°
2026-04-23 19:22 41.85657 -73.04181 31885 ft 435 kts 265°
2026-04-23 19:22 41.83799 -73.11890 31375 ft 432 kts 264°
2026-04-23 19:23 41.82880 -73.15680 31155 ft 431 kts 264°
2026-04-23 19:23 41.81954 -73.19508 30918 ft 430 kts 264°
2026-04-23 19:23 41.81029 -73.23328 30702 ft 430 kts 264°
2026-04-23 19:24 41.79178 -73.30934 30273 ft 428 kts 264°
2026-04-23 19:24 41.78252 -73.34732 30063 ft 427 kts 264°
2026-04-23 19:24 41.76420 -73.42228 29601 ft 424 kts 263°
2026-04-23 19:25 41.74581 -73.49720 29139 ft 421 kts 263°
2026-04-23 19:25 41.72765 -73.57108 28699 ft 419 kts 263°
2026-04-23 19:26 41.70951 -73.64459 28282 ft 416 kts 263°
2026-04-23 19:26 41.70042 -73.68138 28088 ft 415 kts 262°
2026-04-23 19:27 41.68221 -73.75481 27687 ft 413 kts 262°
2026-04-23 19:27 41.65544 -73.86362 27122 ft 408 kts 263°
2026-04-23 19:28 41.63879 -73.93558 26761 ft 406 kts 262°
2026-04-23 19:28 41.62164 -74.00725 26421 ft 404 kts 262°
2026-04-23 19:29 41.61316 -74.04305 26258 ft 403 kts 262°
2026-04-23 19:29 41.59620 -74.11437 25948 ft 400 kts 262°
2026-04-23 19:30 41.57941 -74.18463 25216 ft 398 kts 261°
2026-04-23 19:30 41.57098 -74.21980 24735 ft 393 kts 261°
2026-04-23 19:30 41.54640 -74.28536 23822 ft 402 kts 243°
2026-04-23 19:31 41.52810 -74.31411 23325 ft 408 kts 234°
2026-04-23 19:31 41.50636 -74.33874 22477 ft 421 kts 224°
2026-04-23 19:31 41.48082 -74.35890 21642 ft 426 kts 214°
2026-04-23 19:31 41.45315 -74.37305 20835 ft 424 kts 206°
2026-04-23 19:32 41.42510 -74.38526 20041 ft 423 kts 206°
2026-04-23 19:32 41.39702 -74.39745 19273 ft 424 kts 206°
2026-04-23 19:32 41.36915 -74.40938 18546 ft 425 kts 206°
2026-04-23 19:32 41.34080 -74.42149 17740 ft 425 kts 206°
2026-04-23 19:33 41.31266 -74.43358 16910 ft 424 kts 205°
2026-04-23 19:33 41.28501 -74.44545 16093 ft 412 kts 205°
2026-04-23 19:33 41.23285 -74.46768 14505 ft 388 kts 205°
2026-04-23 19:34 41.20740 -74.47867 13742 ft 380 kts 205°
2026-04-23 19:34 41.18236 -74.48936 12889 ft 371 kts 205°
2026-04-23 19:34 41.13541 -74.50926 11242 ft 335 kts 205°
2026-04-23 19:35 41.11397 -74.51845 10796 ft 325 kts 205°
2026-04-23 19:35 41.09262 -74.52762 10426 ft 319 kts 205°
2026-04-23 19:35 41.07171 -74.53639 10058 ft 315 kts 202°
2026-04-23 19:35 41.04963 -74.53982 9671 ft 319 kts 189°
2026-04-23 19:36 41.02743 -74.54183 9261 ft 315 kts 190°
2026-04-23 19:36 41.00592 -74.54405 8877 ft 313 kts 190°
2026-04-23 19:36 40.98430 -74.54608 8478 ft 308 kts 189°
2026-04-23 19:36 40.96291 -74.54798 8343 ft 307 kts 189°
2026-04-23 19:37 40.94194 -74.54991 8214 ft 306 kts 189°
2026-04-23 19:37 40.92081 -74.55187 8086 ft 302 kts 189°
2026-04-23 19:37 40.89965 -74.55384 7853 ft 302 kts 189°
2026-04-23 19:37 40.87896 -74.55573 7632 ft 301 kts 189°
2026-04-23 19:38 40.85817 -74.55765 7402 ft 298 kts 188°
2026-04-23 19:38 40.83760 -74.55953 7177 ft 295 kts 187°
2026-04-23 19:38 40.81728 -74.55917 6963 ft 295 kts 179°
2026-04-23 19:38 40.79697 -74.55802 6741 ft 292 kts 182°
2026-04-23 19:39 40.77665 -74.55739 6512 ft 290 kts 181°
2026-04-23 19:39 40.75656 -74.55637 6299 ft 288 kts 180°
2026-04-23 19:39 40.73644 -74.55516 6067 ft 285 kts 180°
2026-04-23 19:39 40.71683 -74.55409 5806 ft 284 kts 180°
2026-04-23 19:40 40.69710 -74.55308 5568 ft 283 kts 180°
2026-04-23 19:40 40.67743 -74.55206 5356 ft 282 kts 180°
2026-04-23 19:40 40.65777 -74.55088 5157 ft 283 kts 178°
2026-04-23 19:40 40.63884 -74.54566 4959 ft 284 kts 169°
2026-04-23 19:41 40.61956 -74.54029 4763 ft 281 kts 171°
2026-04-23 19:41 40.60044 -74.53519 4566 ft 284 kts 170°
2026-04-23 19:41 40.58123 -74.52969 4351 ft 277 kts 169°
2026-04-23 19:41 40.56273 -74.52428 4145 ft 266 kts 170°
2026-04-23 19:42 40.54532 -74.51928 3966 ft 249 kts 170°
2026-04-23 19:42 40.52893 -74.51461 3786 ft 236 kts 171°
2026-04-23 19:42 40.51318 -74.51015 3610 ft 233 kts 171°
2026-04-23 19:42 40.49746 -74.50569 3432 ft 228 kts 171°
2026-04-23 19:43 40.48167 -74.50120 3246 ft 230 kts 170°
2026-04-23 19:43 40.46598 -74.49672 3076 ft 230 kts 170°
2026-04-23 19:43 40.45076 -74.49030 2833 ft 233 kts 150°
2026-04-23 19:43 40.44124 -74.47415 2558 ft 223 kts 110°
2026-04-23 19:44 40.43981 -74.45492 2326 ft 207 kts 80°
2026-04-23 19:44 40.44484 -74.43823 2149 ft 190 kts 52°
2026-04-23 19:44 40.45424 -74.42680 1992 ft 179 kts 28°
2026-04-23 19:44 40.46502 -74.41903 1880 ft 178 kts 24°
2026-04-23 19:45 40.47550 -74.41106 1775 ft 175 kts 26°
2026-04-23 19:45 40.48532 -74.40134 1654 ft 179 kts 45°
2026-04-23 19:45 40.48995 -74.38623 1681 ft 171 kts 71°
2026-04-23 19:45 40.49327 -74.37078 1701 ft 178 kts 70°
2026-04-23 19:46 40.49682 -74.35532 1690 ft 178 kts 68°
2026-04-23 19:46 40.50044 -74.34000 1699 ft 178 kts 69°
2026-04-23 19:46 40.50385 -74.32470 1692 ft 172 kts 69°
2026-04-23 19:46 40.50788 -74.30993 1688 ft 175 kts 63°
2026-04-23 19:47 40.51059 -74.29964 1691 ft 181 kts 68°
2026-04-23 19:47 40.51585 -74.27980 1632 ft 173 kts 52°
2026-04-23 19:47 40.52533 -74.27186 1650 ft 152 kts 15°
2026-04-23 19:47 40.53550 -74.26503 1692 ft 168 kts 24°
2026-04-23 19:48 40.54537 -74.25831 1697 ft 164 kts 21°
2026-04-23 19:48 40.55559 -74.25190 1701 ft 159 kts 21°
2026-04-23 19:48 40.56602 -74.24519 1711 ft 165 kts 21°
2026-04-23 19:48 40.57626 -74.23873 1695 ft 170 kts 21°
2026-04-23 19:49 40.58644 -74.23222 1696 ft 158 kts 21°
2026-04-23 19:49 40.59682 -74.22568 1705 ft 168 kts 21°
2026-04-23 19:49 40.60693 -74.21927 1592 ft 154 kts 21°
2026-04-23 19:49 40.61619 -74.21331 1419 ft 152 kts 21°
2026-04-23 19:50 40.62544 -74.20740 1211 ft 144 kts 20°
2026-04-23 19:50 40.63500 -74.20145 1028 ft 146 kts 21°
2026-04-23 19:50 40.64401 -74.19555 824 ft 142 kts 21°
2026-04-23 19:50 40.65298 -74.18977 640 ft 144 kts 20°
2026-04-23 19:51 40.66224 -74.18397 461 ft 146 kts 20°
2026-04-23 19:51 40.67116 -74.17802 223 ft 144 kts 19°
2026-04-23 19:51 40.68025 -74.17275 50 ft 146 kts 22°
2026-04-23 19:51 40.68837 -74.16731 28 ft 110 kts 28°
2026-04-23 19:52 40.69252 -74.16466 30 ft 82 kts 24°
2026-04-23 19:52 40.69638 -74.16294 28 ft 21 kts 358°
2026-04-23 19:52 40.69733 -74.16300 28 ft 13 kts 355°
2026-04-23 19:52 40.69823 -74.16322 27 ft 12 kts 330°
2026-04-23 19:53 40.69873 -74.16412 31 ft 13 kts 298°
2026-04-23 19:53 40.69900 -74.16525 30 ft 12 kts 279°
2026-04-23 19:53 40.69908 -74.16606 27 ft 7 kts 278°
2026-04-23 19:53 40.69912 -74.16667 28 ft 7 kts 272°
2026-04-23 19:54 40.69906 -74.16727 28 ft 6 kts 244°
2026-04-23 19:54 40.69874 -74.16753 28 ft 6 kts 202°
2026-04-23 19:54 40.69830 -74.16773 28 ft 8 kts 199°
2026-04-23 19:54 40.69775 -74.16803 28 ft 9 kts 204°
2026-04-23 19:55 40.69712 -74.16843 28 ft 11 kts 206°
2026-04-23 19:55 40.69654 -74.16904 28 ft 11 kts 237°
2026-04-23 19:55 40.69641 -74.16993 28 ft 8 kts 295°
2026-04-23 19:55 40.69680 -74.17036 28 ft 7 kts 333°
2026-04-23 19:56 40.69719 -74.17068 28 ft 7 kts 323°
2026-04-23 19:56 40.69758 -74.17105 28 ft 7 kts 324°
2026-04-23 19:56 40.69801 -74.17147 28 ft 8 kts 323°
2026-04-23 19:56 40.69840 -74.17201 28 ft 7 kts 302°
2026-04-23 19:57 40.69835 -74.17234 28 ft 2 kts 240°
2026-04-23 19:57 40.69824 -74.17255 28 ft 3 kts 245°
2026-04-23 19:57 40.69824 -74.17275 28 ft 3 kts 272°
2026-04-23 19:57 40.69837 -74.17316 28 ft 5 kts 294°
2026-04-23 19:58 40.69856 -74.17360 28 ft 6 kts 301°
2026-04-23 19:58 40.69876 -74.17416 28 ft 7 kts 294°
2026-04-23 19:58 40.69893 -74.17479 28 ft 8 kts 285°
2026-04-23 19:58 40.69890 -74.17548 28 ft 7 kts 250°
2026-04-23 19:59 40.69856 -74.17586 28 ft 6 kts 199°
2026-04-23 19:59 40.69821 -74.17577 28 ft 5 kts 163°
2026-04-23 19:59 40.69801 -74.17563 28 ft 0 kts 153°
2026-04-23 19:59 40.69800 -74.17562 28 ft 0 kts 152°